Content
SEND FEEDBACK

Daily
Averages
Monthly
Summary
United States of America

HUNTSVILLE, UTAH


Home > North America > United States > Utah
Elevation: 5302 feet     Latitude: 41 14N     Longitude: 111 43W

WEATHER
 
SELECT A DAY
Number of Records: 212,917;   Date Range: 1/1/95 - 7/29/14
 
SHARE

PRINT THIS DATA

[ ← Previous Day ]
WEATHER ALMANAC - JANUARY 31, 2013
[ Next Day → ]
[ °C ]   °F
Weather ElementAverageHighLow
Temperature34.9 °F40.3 °F (2:58 pm)28.4 °F (5:53 am)
Dewpoint28.7 °F30.6 °F (10:58 am)24.8 °F (5:53 am)
Humidity78.4 %87 % (1:28 am)66 % (3:58 pm)
Barometer30.30 in30.36 in (10:58 am)30.25 in (1:28 am)
Wind Speed6.1 mph10.4 mph (11:58 am)
Weather ElementAverage
Visibility10 mi
Wind DirectionS (178.3 °)

Weather ElementTotal
Precipitation---
Heating Degree Days30.7 (Base 65)
Averaged from 35 records on January 31, 2013
WEATHER CONDITIONS BREAKOUT
WIND DIRECTION BREAKOUT
WEATHER BY HOUR - JANUARY 31, 2013
[ °C ]   °F
Local TimeTemperatureDewpointHumidityBarometerVisibilityWind DirectionWind SpeedGust SpeedPrecipitationEventsConditions
12:58 AM34.7 °F28.2 °F77 %30.28 in10.0 miEast (90°)3.5 mphOvercast
1:28 AM32.0 °F28.4 °F87 %30.25 in10.0 miWSW (240°)8.1 mphOvercast
1:58 AM34.5 °F28.0 °F77 %30.27 in10.0 miWSW (250°)8.1 mphOvercast
2:08 AM33.8 °F28.4 °F81 %30.25 in10.0 miWSW (250°)8.1 mphOvercast
2:13 AM33.8 °F28.4 °F81 %30.25 in10.0 miWSW (250°)8.1 mphOvercast
2:23 AM32.0 °F28.4 °F87 %30.25 in10.0 miSouth (190°)8.1 mphOvercast
2:33 AM32.0 °F28.4 °F87 %30.25 in10.0 miSSW (210°)8.1 mphOvercast
2:38 AM32.0 °F28.4 °F87 %30.26 in10.0 miSouth (190°)6.9 mphOvercast
2:58 AM32.4 °F28.2 °F85 %30.30 in10.0 miSouth (180°)5.8 mphOvercast
3:58 AM34.0 °F28.8 °F81 %30.29 in10.0 miSSW (210°)6.9 mphOvercast
4:58 AM30.9 °F26.4 °F83 %30.30 in10.0 miSouth (180°)8.1 mphMostly Cloudy
5:03 AM32.0 °F26.6 °F80 %30.27 in10.0 miSouth (180°)6.9 mphScattered Clouds
5:53 AM28.4 °F24.8 °F86 %30.28 in10.0 miSouth (180°)2.3 mphMostly Cloudy
5:58 AM29.1 °F25.3 °F86 %30.32 in10.0 miSouth (180°)3.5 mphMostly Cloudy
6:58 AM32.2 °F27.3 °F82 %30.32 in10.0 miSouth (190°)9.2 mphOvercast
7:58 AM33.6 °F28.2 °F81 %30.33 in10.0 miSouth (170°)8.1 mphMostly Cloudy
8:58 AM34.7 °F28.8 °F79 %30.34 in10.0 miSouth (190°)6.9 mphMostly Cloudy
9:58 AM35.8 °F30.0 °F80 %30.35 in10.0 miSSW (200°)8.1 mphMostly Cloudy
10:58 AM36.9 °F30.6 °F78 %30.36 in10.0 miSouth (190°)8.1 mphMostly Cloudy
11:58 AM37.6 °F30.4 °F75 %30.36 in10.0 miSSW (200°)10.4 mphMostly Cloudy
12:53 PM37.4 °F30.2 °F75 %30.32 in10.0 miSouth (190°)6.9 mphMostly Cloudy
12:58 PM38.5 °F30.4 °F73 %30.33 in10.0 miSouth (180°)8.1 mphMostly Cloudy
1:58 PM38.8 °F29.1 °F68 %30.31 in10.0 miSouth (190°)6.9 mphMostly Cloudy
2:58 PM40.3 °F30.2 °F67 %30.31 in10.0 miSSW (200°)6.9 mphMostly Cloudy
3:58 PM39.2 °F28.8 °F66 %30.31 in10.0 miSouth (180°)2.3 mphMostly Cloudy
4:58 PM38.5 °F29.3 °F70 %30.31 in10.0 miSouth (170°)2.3 mphMostly Cloudy
5:58 PM36.9 °F29.8 °F76 %30.32 in10.0 miSE (130°)3.5 mphOvercast
6:58 PM36.5 °F29.8 °F77 %30.31 in10.0 miSSE (150°)2.3 mphOvercast
7:58 PM37.0 °F29.1 °F73 %30.30 in10.0 miEast (90°)3.5 mphOvercast
8:28 PM37.4 °F28.4 °F70 %30.27 in10.0 miESE (120°)1.2 mphOvercast
8:38 PM37.4 °F28.4 °F70 %30.27 in10.0 miCalmOvercast
8:58 PM36.1 °F29.7 °F77 %30.30 in10.0 miWest (280°)5.8 mphOvercast
9:58 PM35.4 °F30.6 °F82 %30.30 in10.0 miEast (100°)4.6 mphOvercast
10:58 PM35.4 °F29.8 °F80 %30.28 in10.0 miSouth (170°)9.2 mphOvercast
11:58 PM35.6 °F29.7 °F79 %30.28 in10.0 miSouth (170°)6.9 mphOvercast
Hourly data recorded from KHIF, located miles away from Huntsville, Utah







STORIES FROM OUR PARTNERS